Weather in Tbilisskaya

Russia / Krasnodar Krai     45°21′52″N   40°12′06″E
temp.,
°C
wind,
m/s
gust,
m/s
humid.,
%
clouds,
%
prec.,
mm/h
press.,
hPa
HPBL,
m
26 january, tue
tue2600:00+3se4475100 0.0 101565
03:00+5wsw52162100 0.0 1015475
06:00+7ssw81890100 0.1 1018319
09:00+5sw41087100 0.1 1019190
12:00+7s239397 0.0 101975
15:00+7se467896 0.0 101798
18:00+5se71570100 0.0 1018238
21:00+5ese61573100 0.0 1017262
27 january, wed
wed2700:00+5ese51177100 0.0 1016188
03:00+4ese5969100 0.0 1015106
06:00+5se4868100 0.0 1014107
09:00+5se3670100 0.0 1013119
12:00+8ene3666100 0.0 1011191
15:00+8e5967100 0.0 1008307
18:00+6e4876100 0.0 1008182
21:00+4e3583100 0.0 1007106
28 january, thu
thu2800:00+4e4786100 0.0 1006119
03:00+3e358685 0.0 100576
06:00+4e347888 0.0 100557
09:00+5ese237094 0.0 100668
12:00+10wsw31059100 0.0 1006499
15:00+8w71279100 0.0 1007920
18:00+6wsw3995100 2.1 1008686
21:00+6w2694100 3.6 1009314
29 january, fri
fri2900:00+5wnw3788100 1.1 1010416
03:00+4wsw3685100 1.2 1010180
06:00+2sw369167 0.0 1010146
09:00+3ssw4118469 0.0 1011501
12:00+7wsw8116531 0.0 10101378
15:00+4sw7128966 1.6 1009909
18:00+4sw71485100 1.0 10091079
21:00+4ssw81676100 1.0 10091071
30 january, sat
sat3000:00+4sw81771100 0.0 10091304
03:00+4sw71874100 0.0 10081192
06:00+4sw61880100 0.0 10071176
09:00+5sw101877100 0.0 10091243
12:00+7sw111870100 0.1 10091512
15:00+7sw91670100 0.5 10081189
18:00+5w387399 0.0 1008196
21:00+5e496799 0.0 1007221